sat.trackr.live / text

‹ back to catalog

STARLINK-37688

NORAD 69372 · 2026-123V

PAYLOAD ACTIVE UNKNOWN

§ Identity

Operator
Country
US
Launch date
2026-06-04
Launch site
AFETR
Launch vehicle
Mass (kg)
RCS (m²)

Purposes: comms

External: N2YO · Heavens-Above · Gunter

§ Orbital elements

Epoch: 2026-09-19T22:12:59.006016Z

Period
93.85 min
Inclination
53.1598°
Eccentricity
0.0001372
Mean motion
15.34406618 rev/d
Perigee alt
461.7 km
Apogee alt
463.6 km
Semi-major
6,840.8 km
B*
6.1059e-4
RAAN
144.2644°
Arg perigee
77.8811°
Mean anomaly
282.2345°
Rev number
1,678

§ Raw data

STARLINK-376881 69372U 26123V   26262.92568294  .00020314  00000+0  61059-3 0  99972 69372  53.1598 144.2644 0001372  77.8811 282.2345 15.34406618 16786

JSON: /api/v1/satellites/69372 · /tle

For live sub-satellite position, see the globe view (requires WebGL).

§ Visibility from observer

Set your observer location to see the next 7 days of passes ≥ 10°. The values pass through the URL so the page stays shareable.

No JS? Fill the form by hand. The geolocation button needs JavaScript.